This demonstration page uses our WeatherBlox Daily Observations layout. Learn more.

Hourly Observations for February 3, 2020

Temp ( °F °C ) Dew Point ( °F °C ) Humidity (%) Winds ( mph kmh ) Pressure ( in mb ) Visibility ( mi km ) Precip ( " mm )
12:15 am 00:15 Partly Cloudy 34 1.2 32 0.1 92 92 NE 20 31 29.7 1006 10 16.0934 0 0
12:35 am 00:35 Partly Cloudy 34 1 32 0 93 93 NE 21 33 29.71 1006 10 16.0934 0 0
12:55 am 00:55 Mostly Cloudy 34 0.9 32 0 94 94 NE 24 39 29.72 1006 10 16.0934 0 0
1:15 am 01:15 Cloudy 33 0.5 31 -0.4 94 94 NE 22 35 29.71 1006 10 16.0934 0 0
1:35 am 01:35 Cloudy 33 0.5 31 -0.5 93 93 NE 24 39 29.7 1006 10 16.0934 0 0
1:55 am 01:55 Cloudy 33 0.6 31 -0.3 94 94 NE 26 43 29.69 1005 10 16.0934 0 0
2:15 am 02:15 Cloudy 33 0.5 31 -0.3 94 94 NE 29 46 29.69 1005 10 16.0934 0 0
2:35 am 02:35 Cloudy 33 0.5 31 -0.5 93 93 NE 28 44 29.69 1005 10 16.0934 0 0
2:55 am 02:55 Cloudy 32 0.2 30 -1 92 92 NE 25 41 29.7 1006 10 16.0934 0 0
3:15 am 03:15 Cloudy 32 0.2 30 -1.1 91 91 NNE 29 46 29.71 1006 10 16.0934 0 0
3:35 am 03:35 Cloudy 32 0.2 30 -1.1 91 91 NE 25 41 29.72 1006 10 16.0934 0 0
3:55 am 03:55 Cloudy 32 0.2 30 -0.9 92 92 NNE 28 44 29.72 1006 10 16.0934 0 0
4:15 am 04:15 Cloudy 32 0.2 30 -1 92 92 NE 29 46 29.72 1006 10 16.0934 0 0
4:35 am 04:35 Cloudy 32 0 30 -1.2 92 92 NNE 30 48 29.74 1007 10 16.0934 0 0
4:55 am 04:55 Cloudy 32 0 29 -1.5 90 90 NNE 30 48 29.74 1007 10 16.0934 0 0
5:15 am 05:15 Cloudy 32 0 29 -1.8 88 88 NNE 33 54 29.75 1008 10 16.0934 0 0
5:35 am 05:35 Cloudy 32 0 28 -2 87 87 NE 31 50 29.75 1008 10 16.0934 0 0
5:55 am 05:55 Cloudy 32 -0.1 28 -2.2 86 86 NE 26 43 29.76 1008 10 16.0934 0 0
6:15 am 06:15 Cloudy 32 -0.2 28 -2.5 85 85 NNE 31 50 29.78 1008 10 16.0934 0 0
6:35 am 06:35 Cloudy 32 -0.1 28 -2.5 84 84 NNE 29 46 29.78 1009 10 16.0934 0 0
6:55 am 06:55 Cloudy 32 -0.2 28 -2.4 85 85 NNE 33 54 29.79 1009 10 16.0934 0 0
7:15 am 07:15 Cloudy 32 -0.1 28 -2.5 84 84 NNE 26 43 29.8 1009 10 16.0934 0 0
7:35 am 07:35 Cloudy 32 -0.1 27 -2.7 83 83 NNE 28 44 29.81 1010 10 16.0934 0 0
7:55 am 07:55 Cloudy 31 -0.6 25 -3.9 79 79 NNE 25 41 29.83 1010 10 16.0934 0 0
8:15 am 08:15 Cloudy 30 -1 23 -5.1 74 74 NNE 29 46 29.84 1011 10 16.0934 0 0
8:35 am 08:35 Cloudy 30 -1 20 -6.4 67 67 NNE 26 43 29.85 1011 10 16.0934 0 0
8:55 am 08:55 Cloudy 30 -1 19 -7.5 62 62 NNE 26 43 29.85 1011 10 16.0934 0 0
9:15 am 09:15 Cloudy 30 -1 18 -7.6 61 61 NNE 29 46 29.86 1011 10 16.0934 0 0
9:35 am 09:35 Cloudy 31 -0.8 18 -8 59 59 NNE 25 41 29.86 1011 10 16.0934 0 0
9:55 am 09:55 Cloudy 31 -0.7 16 -8.8 55 55 NNE 30 48 29.86 1011 10 16.0934 0 0
10:15 am 10:15 Cloudy 31 -0.5 17 -8.5 55 55 NNE 26 43 29.87 1011 10 16.0934 0 0
10:35 am 10:35 Cloudy 32 -0.2 16 -8.8 53 53 NNE 25 41 29.86 1011 10 16.0934 0 0
10:55 am 10:55 Cloudy 32 0 16 -8.8 52 52 NNE 25 41 29.88 1012 10 16.0934 0 0
11:15 am 11:15 Cloudy 32 0 17 -8.4 54 54 NNE 26 43 29.88 1012 10 16.0934 0 0
11:35 am 11:35 Cloudy 32 0 17 -8.5 53 53 NNE 29 46 29.88 1012 10 16.0934 0 0
11:55 am 11:55 Cloudy 32 0.2 16 -8.8 51 51 NNE 26 43 29.88 1012 10 16.0934 0 0
12:15 pm 12:15 Cloudy 32 0.1 17 -8.4 53 53 NNE 23 37 29.88 1012 10 16.0934 0 0
12:35 pm 12:35 Cloudy 32 0.1 17 -8.6 52 52 NNE 24 39 29.89 1012 10 16.0934 0 0
12:55 pm 12:55 Cloudy 32 0.1 17 -8.6 52 52 NNE 23 37 29.89 1012 10 16.0934 0 0
1:15 pm 13:15 Cloudy 32 0.2 16 -9.1 50 50 NNE 22 35 29.88 1012 10 16.0934 0 0
1:35 pm 13:35 Cloudy 33 0.3 16 -9 50 50 NNE 23 37 29.87 1012 10 16.0934 0 0
1:55 pm 13:55 Cloudy 32 0.2 16 -8.7 52 52 NNE 21 33 29.88 1012 10 16.0934 0 0
2:15 pm 14:15 Cloudy 32 0.2 18 -7.9 55 55 NNE 20 31 29.89 1012 10 16.0934 0 0
2:35 pm 14:35 Cloudy 32 0 18 -7.7 57 57 NNE 22 35 29.9 1013 10 16.0934 0 0
2:55 pm 14:55 Cloudy 32 0 18 -7.7 57 57 NNE 23 37 29.89 1012 10 16.0934 0 0
3:15 pm 15:15 Cloudy 32 0 18 -7.6 57 57 N 24 39 29.88 1012 10 16.0934 0 0
3:35 pm 15:35 Cloudy 32 0 18 -7.8 56 56 NNE 22 35 29.9 1013 10 16.0934 0 0
3:55 pm 15:55 Cloudy 32 0 18 -8 55 55 N 20 31 29.91 1013 10 16.0934 0 0
4:15 pm 16:15 Cloudy 32 0 17 -8.2 54 54 NNE 20 31 29.91 1013 10 16.0934 0 0
4:35 pm 16:35 Cloudy 32 -0.2 18 -7.8 57 57 NNE 20 31 29.93 1013 10 16.0934 0 0
4:55 pm 16:55 Cloudy 31 -0.5 18 -7.8 58 58 NNE 24 39 29.93 1014 10 16.0934 0 0
5:15 pm 17:15 Cloudy 31 -0.7 17 -8.1 58 58 NNE 22 35 29.93 1014 10 16.0934 0 0
5:35 pm 17:35 Cloudy 30 -1.1 18 -7.7 61 61 N 24 39 29.94 1014 10 16.0934 0 0
5:55 pm 17:55 Cloudy 29 -1.4 18 -7.7 63 63 NNE 23 37 29.97 1015 10 16.0934 0 0
6:15 pm 18:15 Cloudy 29 -1.5 18 -7.7 63 63 NNE 20 31 29.98 1015 10 16.0934 0 0
6:35 pm 18:35 Cloudy 29 -1.7 19 -7.5 65 65 NNE 21 33 29.97 1015 10 16.0934 0 0
6:55 pm 18:55 Cloudy 28 -2 19 -7.5 66 66 NNE 28 44 29.98 1015 10 16.0934 0 0
7:15 pm 19:15 Cloudy 28 -2.2 18 -7.6 67 67 N 21 33 30.01 1016 10 16.0934 0 0
7:35 pm 19:35 Cloudy 28 -2.2 18 -8 65 65 NNE 23 37 30.02 1016 10 16.0934 0 0
7:55 pm 19:55 Cloudy 28 -2.2 17 -8.1 64 64 NNE 21 33 30.03 1017 10 16.0934 0 0
8:15 pm 20:15 Cloudy 28 -2.3 18 -7.8 66 66 NNE 20 31 30.05 1017 10 16.0934 0 0
8:35 pm 20:35 Cloudy 28 -2.5 18 -7.9 67 67 NNE 20 31 30.06 1018 10 16.0934 0 0
8:55 pm 20:55 Cloudy 27 -2.6 18 -8 67 67 NNE 25 41 30.06 1018 10 16.0934 0 0
9:15 pm 21:15 Cloudy 27 -2.6 18 -7.9 67 67 NNE 18 30 30.07 1018 10 16.0934 0 0
9:35 pm 21:35 Cloudy 27 -2.8 17 -8.2 67 67 NNE 22 35 30.08 1019 10 16.0934 0 0
9:55 pm 21:55 Cloudy 27 -2.8 17 -8.1 67 67 NNE 17 28 30.09 1019 10 16.0934 0 0
10:15 pm 22:15 Cloudy 27 -2.9 17 -8.1 68 68 NNE 20 31 30.09 1019 10 16.0934 0 0
10:35 pm 22:35 Cloudy 27 -3 17 -8.1 68 68 NNE 21 33 30.1 1019 10 16.0934 0 0
10:55 pm 22:55 Cloudy 26 -3.2 17 -8.6 67 67 NNE 22 35 30.11 1019 10 16.0934 0 0
11:15 pm 23:15 Cloudy 26 -3.2 17 -8.4 68 68 NNE 20 31 30.11 1019 10 16.0934 0 0
11:35 pm 23:35 Cloudy 26 -3.2 16 -8.7 66 66 NNE 24 39 30.11 1019 10 16.0934 0 0
11:55 pm 23:55 Cloudy 26 -3.3 16 -8.9 66 66 NNE 21 33 30.13 1020 10 16.0934 0 0

Powered by AerisWeather